Billings, MT

5:59 AM MDT on April 19, 2018 (GMT -0600)
Billings Logan International

Weather History for KBIL - October, 2011

Change the Weather History Date:

Thursday, October 13, 2011

  Actual Average Record
Temperature  
Mean Temperature 51 °F 49 °F  
Max Temperature 60 °F 61 °F 81 °F (1958)
Min Temperature 41 °F 38 °F 20 °F (1969)
Degree Days  
Heating Degree Days 14 16  
Month to date heating degree days 104 178  
Since 1 July heating degree days 192 407  
Cooling Degree Days 0 0  
Month to date cooling degree days 22 0  
Year to date cooling degree days 734 633  
Moisture  
Dew Point 29 °F    
Average Humidity 49    
Maximum Humidity 70    
Minimum Humidity 28    
Precipitation  
Precipitation 0.00 in 0.04 in 0.70 in (1942)
Month to date precipitation 1.21 0.57  
Year to date precipitation 18.42 11.92  
Snow  
Snow 0.00 in 0.10 in 1.00 in (1952)
Month to date snowfall 0.0 1.5  
Since 1 July snowfall T 2.6  
Since 1 September snowfall 0.0 2.6  
Snow Depth 0.00 in    
Sea Level Pressure  
Sea Level Pressure 30.04 in    
Wind  
Wind Speed 9 mph (WSW)    
Max Wind Speed 21 mph    
Max Gust Speed 26 mph    
Visibility 10 miles    
Events      
T = Trace of Precipitation, MM = Missing Value Source: NWS Daily Summary

Daily Weather History Graph

Daily Weather History Graph

Search for Another Location

Airport or City:

Astronomy

Oct. 13, 2011 Rise Set
Actual Time 7:27 AM MDT 6:32 PM MDT
Civil Twilight 6:57 AM MDT 7:02 PM MDT
Nautical Twilight 6:23 AM MDT 7:36 PM MDT
Astronomical Twilight 5:48 AM MDT 8:11 PM MDT
Moon 7:00 PM MDT (10/13) 9:11 AM MDT (10/13)
Length of Visible Light 12h 04m
Length of Day
11h 04m
Full, 98% of the Moon is Illuminated
Oct 13
Full
Oct 19
Last Quarter
Oct 26
New
Nov 2
First Quarter
Nov 10
Full

Hourly Weather History & Observations

Time (MDT) Temp. Windchill Dew Point Humidity Pressure Visibility Wind Dir Wind Speed Gust Speed Precip Events Conditions
12:53 AM 46.9 °F - 30.0 °F 52% 30.02 in 10.0 mi SSW 5.8 mph - N/A   Mostly Cloudy
1:53 AM 46.9 °F - 30.9 °F 54% 30.02 in 10.0 mi SW 5.8 mph - N/A   Mostly Cloudy
2:53 AM 46.0 °F 41.9 °F 30.0 °F 54% 30.01 in 10.0 mi SSW 8.1 mph - N/A   Mostly Cloudy
3:53 AM 45.0 °F 41.2 °F 30.9 °F 58% 30.03 in 10.0 mi SSW 6.9 mph - N/A   Mostly Cloudy
4:53 AM 43.0 °F 38.2 °F 34.0 °F 71% 30.03 in 10.0 mi SSW 8.1 mph - N/A   Scattered Clouds
5:53 AM 44.1 °F 37.7 °F 30.0 °F 58% 30.04 in 10.0 mi SW 12.7 mph - N/A   Mostly Cloudy
6:53 AM 41.0 °F 34.7 °F 32.0 °F 70% 30.06 in 10.0 mi SSW 10.4 mph - N/A   Overcast
7:53 AM 43.0 °F 35.7 °F 30.0 °F 60% 30.05 in 10.0 mi SW 15.0 mph - N/A   Mostly Cloudy
8:53 AM 45.0 °F 40.1 °F 30.0 °F 56% 30.07 in 10.0 mi WSW 9.2 mph - N/A   Mostly Cloudy
9:53 AM 45.0 °F 40.1 °F 32.0 °F 60% 30.08 in 10.0 mi SW 9.2 mph - N/A   Mostly Cloudy
10:53 AM 46.9 °F - 33.1 °F 59% 30.08 in 10.0 mi SSW 8.1 mph - N/A   Mostly Cloudy
11:53 AM 48.2 °F - 33.8 °F 58% 30.06 in 10.0 mi SSW 6.9 mph - N/A   Mostly Cloudy
12:53 PM 55.4 °F - 30.2 °F 38% 30.04 in 10.0 mi NW 10.4 mph - N/A   Mostly Cloudy
1:53 PM 57.2 °F - 33.8 °F 41% 30.02 in 10.0 mi SSW 6.9 mph - N/A   Mostly Cloudy
2:50 PM 59.0 °F - 26.6 °F 29% 30.00 in 10.0 mi NW 13.8 mph - N/A   Mostly Cloudy
2:53 PM 59.0 °F - 28.0 °F 31% 29.99 in 10.0 mi NW 12.7 mph - N/A   Mostly Cloudy
3:53 PM 59.0 °F - 27.0 °F 29% 29.98 in 10.0 mi NNW 10.4 mph 26.5 mph N/A   Scattered Clouds
4:53 PM 57.0 °F - 26.1 °F 30% 29.99 in 10.0 mi NNW 15.0 mph - N/A   Partly Cloudy
5:53 PM 55.4 °F - 26.6 °F 33% 30.00 in 10.0 mi NW 10.4 mph - N/A   Scattered Clouds
6:53 PM 52.0 °F - 25.0 °F 35% 30.02 in 10.0 mi North 8.1 mph - N/A   Partly Cloudy
7:53 PM 46.9 °F - 28.0 °F 48% 30.06 in 10.0 mi ENE 6.9 mph - N/A   Partly Cloudy
8:53 PM 46.0 °F 43.9 °F 27.0 °F 47% 30.07 in 10.0 mi East 4.6 mph - N/A   Clear
9:53 PM 46.0 °F 42.5 °F 26.1 °F 46% 30.08 in 10.0 mi ENE 6.9 mph - N/A   Scattered Clouds
10:53 PM 45.0 °F 43.5 °F 26.1 °F 48% 30.09 in 10.0 mi NNE 3.5 mph - N/A   Mostly Cloudy
11:53 PM 46.0 °F 44.8 °F 28.0 °F 50% 30.10 in 10.0 mi West 3.5 mph - N/A   Overcast